This is the latest recevied weather packets stored in our database for station/object SV7RNH. If no packets are shown the sender has not sent any weather packets the latest 10 day(s).
| Time | Temp. | Humidity | Pressure | Rain* | Wind** | Luminosity | Snow |
|---|---|---|---|---|---|---|---|
| 1777895404 | 25° C | 10% | 1019.6 hPa | 0 mm | - | - | - |
| 1777895103 | 24.44° C | 10% | 1019.6 hPa | 0 mm | - | - | - |
| 1777894803 | 24.44° C | 10% | 1019.7 hPa | 0 mm | - | - | - |
| 1777894504 | 23.89° C | 10% | 1019.7 hPa | 0 mm | - | - | - |
| 1777894204 | 24.44° C | 10% | 1019.8 hPa | 0 mm | - | - | - |
| 1777893903 | 24.44° C | 10% | 1019.9 hPa | 0 mm | - | - | - |
| 1777893604 | 24.44° C | 10% | 1019.9 hPa | 0 mm | - | - | - |
| 1777893304 | 23.89° C | 11% | 1019.9 hPa | 0 mm | - | - | - |
| 1777893003 | 23.89° C | 11% | 1020.1 hPa | 0 mm | - | - | - |
| 1777892703 | 23.89° C | 10% | 1020.1 hPa | 0 mm | - | - | - |
| 1777892404 | 24.44° C | 10% | 1020.1 hPa | 0 mm | - | - | - |
| 1777892104 | 24.44° C | 10% | 1020 hPa | 0 mm | - | - | - |
| 1777891803 | 23.89° C | 10% | 1020 hPa | 0 mm | - | - | - |
| 1777891504 | 23.89° C | 10% | 1020 hPa | 0 mm | - | - | - |
| 1777891204 | 23.89° C | 10% | 1020.1 hPa | 0 mm | - | - | - |
| 1777890903 | 23.33° C | 10% | 1020.1 hPa | 0 mm | - | - | - |
| 1777890603 | 22.78° C | 10% | 1020.1 hPa | 0 mm | - | - | - |
| 1777890304 | 22.78° C | 10% | 1020.1 hPa | 0 mm | - | - | - |
| 1777890004 | 22.78° C | 10% | 1020.2 hPa | 0 mm | - | - | - |
| 1777889703 | 22.78° C | 10% | 1020.2 hPa | 0 mm | - | - | - |
| 1777889403 | 22.78° C | 10% | 1020.3 hPa | 0 mm | - | - | - |
| 1777889104 | 22.22° C | 10% | 1020.2 hPa | 0 mm | - | - | - |
| 1777888804 | 22.22° C | 10% | 1020.3 hPa | 0 mm | - | - | - |
| 1777888503 | 22.78° C | 10% | 1020.3 hPa | 0 mm | - | - | - |
| 1777888203 | 22.78° C | 10% | 1020.5 hPa | 0 mm | - | - | - |
* Rain latest hour (hover to see other rain measurements)
** Current wind speed in m/s (hover to see current wind gust speed)